Location: Bremen
(53.0793°N, 8.8017°E)
Time: 21:31:52
(UTC+02:00)

Vanguard 2 Rocket - Pass Details

Date: 16 April 2024
Orbit: 556 x 3304 km, 32.9° (Epoch: 20 May)

Event Time Altitude Azimuth Distance (km) Brightness Sun altitude
Rises 23:27:16 0° 218° (SW) 6,741 11.1 -21.6°
Reaches altitude 10° 23:32:19 10° 209° (SSW) 5,978 10.8 -22.0°
Maximum altitude 23:47:50 31° 157° (SSE) 4,685 9.9 -23.1°
Drops below altitude 10° 00:02:42 10° 105° (ESE) 5,760 10.6 -24.0°
Sets 00:07:24 0° 96° (E) 6,476 11.0 -24.3°
